星链-4782 (STARLINK-4782 )

导读 | 豆包AI

STARLINK-4782是美国太空探索技术公司(SpaceX)星链(Starlink)低轨宽带互联网星座的卫星之一,于2022年9月24日发射入轨。它采用平板设计,搭载Ku/Ka波段通信载荷与氪工质霍尔推进器,具备自主避撞能力,旨在为全球提供高速低延迟宽带互联网服务,寿命终结后会坠入大气层烧毁,降低空间垃圾影响。

Basic Information
目录编号:
53933
目录名称:
STARLINK-4782
国际标识:
2022-119AZ
轨道中心:
EARTH
卫星名称:
星链-4782
卫星全名:
星链-4782 (STARLINK-4782 )
卫星状态:
在轨 (已飞行1268 天)
发射日期:
2022-09-24 UTC
国别 :
美国 (US)
星等 :
--
Orbit Information
数据来源 国际轨道数据 AOE轨道数据
星历时间 2026-03-15T03:59:39+0800
15小时前
查看轨道信息
2026-03-15T02:00:00+0800
17小时前
查看轨道信息
半长轴 6917.855km 6917.904km
偏心率 0.0001397 0.0000785
轨道倾角 53.216° 53.212°
近地点辐角 85.729° 100.338°
升交点赤经 280.890° 281.268°
平近点角 274.387° 168.132°
近地点 538.751km 539.223km
远地点 540.685km 540.311km
周期 95.437分钟 95.438分钟
每日圈数 15.088486 15.088323
Detailed Information
固有亮度:
5
最大亮度:
2.5
卫星平台:
Starlink v1.5
覆盖范围:
全球
运营商:
太空探索技术公司
运营商所在国:
美国
制造商(研发单位):
太空探索技术公司
制造商所在国:
美国
使用方式:
暂无
Satellite Introduction
星链(Starlink)计划是由太空探索技术公司(SpaceX)提出的一个巨型低轨卫星互联网星座项目,计划在2019年至2024年间在太空搭建由约1.2万颗卫星组成的“星链”网络,其中1584颗将部署在地球上空550千米处的近地轨道,并从2020年开始工作。该卫星仍在工作。
2D Orbit Map
3D Orbit Map
Orbit Altitude Analysis Chart
Orbit Inclination Analysis Chart
Orbit Comprehensive Analysis Chart
View Comprehensive Chart